Regional Weather Roundup
Issued by NWS Newport/Morehead, NC

Current Version | Previous Version | Text Only | Print | Product List | Glossary Off
Versions: 1 2 3 4 5 6 7 8 9 10 11 12 13 14 15 16 17 18 19 20 21 22 23 24 25 26 27 28 29 30 31 32 33 34 35 36 37 38 39 40 41 42 43 44 45 46 47 48 49 50

000
ASUS42 KMHX 020724
RWRMHX
WEATHER ROUNDUP FOR EASTERN NORTH CAROLINA
NATIONAL WEATHER SERVICE NEWPORT/MOREHEAD CITY NC
300 AM EDT THU APR 02 2015

NOTE: "FAIR" INDICATES FEW OR NO CLOUDS BELOW 12,000 FEET
WITH NO SIGNIFICANT WEATHER AND/OR OBSTRUCTIONS TO VISIBILITY

NCZ015>017-031-032-045>047-102-103-020800-
NORTH COAST

CITY           SKY/WX    TMP DP  RH WIND       PRES   REMARKS
EDENTON        CLEAR     41  33  74 CALM      30.29F
ELIZABETH CITY CLEAR     38  34  85 SE3       30.30F
KITTY HAWK     SUNNY     43  35  74 CALM      30.29F
MANTEO         CLEAR     36  32  88 CALM      30.30F

$$

NCZ045>047-081-094-103-104-020800-
CENTRAL COAST

CITY           SKY/WX    TMP DP  RH WIND       PRES   REMARKS
FRISCO         CLEAR     37  30  75 N5        30.31S
SWANQUARTER      N/A     43 N/A N/A E5        30.24F

$$

NCZ095-097-098-100-101-020800-
SOUTHERN COAST

CITY           SKY/WX    TMP DP  RH WIND       PRES   REMARKS
BEAUFORT       CLEAR     50  36  58 E6        30.28F
CEDAR ISLAND     N/A     52 N/A N/A E10       30.33S
JACKSONVILLE   CLEAR     48  34  58 E5        30.29S
PINEY ISLAND   SUNNY    N/A N/A N/A E9        30.29F
WILMINGTON     CLEAR     53  38  56 E7        30.28S


$$

NCZ011>013-027>030-043-044-078>080-089-090>093-098-020800-
COASTAL PLAIN

CITY           SKY/WX    TMP DP  RH WIND       PRES   REMARKS
AHOSKIE        CLEAR     35  32  87 CALM      30.30S
CLINTON        CLEAR     43  42  93 CALM      30.29S
ELIZABETHTOWN  CLEAR     45  42  89 CALM      30.27S
GOLDSBORO      CLEAR     42  42  98 E2        30.27S
GREENVILLE     CLEAR     45  37  76 SE3       30.30S
HAVELOCK       FAIR      42  34  73 SE5       30.29F
KENANSVILLE    CLEAR     39  34  81 CALM      30.30S
KINSTON        CLEAR     45  37  73 SE3       30.29F
NEW BERN       CLEAR     48  36  63 SE6       30.29F
RICHLANDS      CLEAR     43  28  56 E3        30.29F
ROCKY MOUNT    CLEAR     41  36  82 CALM      30.29F
WASHINGTON     CLEAR     38  34  86 CALM      30.30S
WHITEVILLE     CLEAR     49  43  81 CALM      30.27S

$$

AMZ130-135-150-152-154-156-158-170-250-252-270-ANZ085-086-088-633-658-670-020800-
MARINE OBSERVATIONS

STATION/POSITION TIME  TEMP    WIND        PRES    WAVE   SWELL
                       AIR SEA DIR/SP/G            HT/PER HT/PER
                 (UTC) (F)     (DEG/KT/KT) (MB)    (FT/S) (FT/S)
CHESAPEAKE LIGHT 0700   44     210/ 11/ 11 1026.1
64 E VA BEACH    0650   50 54  200/  6/  8 1025.7    3/ 7   3/ 7
DUCK             0700   45 43  170/  6/  6 1025.0
2 E DUCK         0611      43                N/A     3/ 8
10 NE DUCK       NOT AVBL
OREGON INLET     0700   42 47  230/  1/  1 1026.2
HATTERAS CG      0700   46 57   60/  3/  5 1026.5
CAPE LOOKOUT     0700   56      70/ 13/ 14 1025.3
BEAUFORT LAB     0700   52 55   90/  5/  6 1024.3
27 SE WRIGHTSVLE 0700   57 63  110/ 17/ 21 1025.9
5 SE WRIGHTSVLE  0700   58 56  110/ 14/ 16 1025.1
225 S CAPE HAT   0650   63 69   40/ 16/ 19 1024.0    7/ 8   5/ 8
41 SE CHARLESTON 0650   65 68   80/ 19/ 23 1022.9    6/ 7   2/ 8

$$


USA.gov is the U.S. government's official web portal to all federal, state and local government web resources and services.